KUIPER-00208

Last updated on Sun Mar 15 2026 00:02:06 GMT+0000 (Coordinated Universal Time)

1 67775U 26030M 26073.49900304 .00035945 00000+0 11437-2 0 9993 2 67775 51.8829 196.5494 0015895 71.7459 288.5253 15.32134028 5823
UTC large
Height (km)
Speed (km/s)
/
Latitude / Longitude
Inclination (degrees)
Orbital Period (minutes)
Azimuth
Elevation
Range (km)
Doppler Factor

Next 0 passes for location: London (51.5072 / 0.1276)

Sorry there are no passes over London.